Location: Gro� Glienicke
(52.4675°N, 13.1079°E)
Time: 19:15:24
(UTC+00:00)

Cosmos 1980 - Pass Details

Date: 06 July 2020
Orbit: 839 x 847 km, 71.0° (Epoch: 12 August)

Event Time Altitude Azimuth Distance (km) Brightness Sun altitude
Exits shadow 21:41:21 - 197° (SSW) 2,535 5.7 -12.4°
Reaches altitude 10° 21:41:34 10° 197° (SSW) 2,450 5.6 -12.4°
Maximum altitude 21:47:08 68° 116° (ESE) 908 3.7 -12.7°
Drops below altitude 10° 21:52:45 10° 35° (NE) 2,468 6.6 -13.0°
Sets 21:55:13 0° 33° (NNE) 3,408 7.5 -13.1°
